CW6490 Weather Reports


Display with metric or nautical units.
time (UTC)temp
F
wind
direction
speed
MPH
gust
MPH
rain 1hr
in
rain 24hr
in
rain mn
in
humidity
%
barometer
mb
20260508213821 99 241 3.0 12.0 0.00 0.00 0.00 15 1009.6
20260508212814 98 189 2.0 14.0 0.00 0.00 0.00 16 1009.8
20260508211846 98 211 2.0 9.0 0.00 0.00 0.00 15 1009.9
20260508210824 96 239 4.0 7.0 0.00 0.00 0.00 17 1010.3
20260508205819 96 336 2.0 8.0 0.00 0.00 0.00 16 1010.3
20260508204814 96 212 1.0 11.0 0.00 0.00 0.00 16 1010.5
20260508203826 94 189 2.0 10.0 0.00 0.00 0.00 17 1010.6
20260508202818 95 229 4.0 8.0 0.00 0.00 0.00 17 1010.7
20260508201816 94 230 3.0 11.0 0.00 0.00 0.00 17 1010.8
20260508200828 94 267 3.0 9.0 0.00 0.00 0.00 17 1011.1
20260508195821 93 208 2.0 6.0 0.00 0.00 0.00 18 1011.2
20260508194814 93 342 2.0 11.0 0.00 0.00 0.00 18 1011.4
20260508193826 93 285 1.0 7.0 0.00 0.00 0.00 17 1011.4
20260508192822 92 208 0.0 7.0 0.00 0.00 0.00 17 1011.7
20260508191815 91 227 3.0 8.0 0.00 0.00 0.00 18 1011.9
20260508190829 91 213 1.0 7.0 0.00 0.00 0.00 19 1012.1
20260508185822 91 109 2.0 6.0 0.00 0.00 0.00 18 1012.2
20260508184817 90 136 1.0 6.0 0.00 0.00 0.00 20 1012.2
20260508183815 89 225 2.0 5.0 0.00 0.00 0.00 20 1012.4
20260508182829 90 243 1.0 3.0 0.00 0.00 0.00 19 1012.5
20260508181842 88 210 0.0 4.0 0.00 0.00 0.00 20 1012.6
20260508180813 89 236 2.0 4.0 0.00 0.00 0.00 21 1012.7
20260508175827 88 162 0.0 4.0 0.00 0.00 0.00 22 1012.8
20260508174825 86 232 2.0 6.0 0.00 0.00 0.00 22 1012.9
20260508173818 86 232 1.0 6.0 0.00 0.00 0.00 23 1013.0
20260508172831 86 10 0.0 5.0 0.00 0.00 0.00 23 1013.1
20260508171825 85 126 1.0 5.0 0.00 0.00 0.00 24 1013.2
20260508170819 85 210 0.0 4.0 0.00 0.00 0.00 24 1013.3
20260508165816 84 160 1.0 4.0 0.00 0.00 0.00 25 1013.4
20260508164830 83 169 1.0 5.0 0.00 0.00 0.00 26 1013.4
20260508163824 84 105 2.0 5.0 0.00 0.00 0.00 25 1013.5
20260508162818 83 134 1.0 4.0 0.00 0.00 0.00 26 1013.5
20260508161813 82 170 0.0 3.0 0.00 0.00 0.00 26 1013.5
20260508160831 81 164 1.0 5.0 0.00 0.00 0.00 27 1013.5
20260508155822 80 62 1.0 6.0 0.00 0.00 0.00 27 1013.5
20260508154814 80 62 3.0 8.0 0.00 0.00 0.00 27 1013.4
20260508153826 79 113 2.0 5.0 0.00 0.00 0.00 27 1013.4
20260508152819 79 62 2.0 5.0 0.00 0.00 0.00 28 1013.5
20260508151817 78 79 2.0 4.0 0.00 0.00 0.00 29 1013.5
20260508150828 78 101 2.0 4.0 0.00 0.00 0.00 29 1013.6
20260508145841 77 90 1.0 4.0 0.00 0.00 0.00 30 1013.6
20260508144832 76 79 3.0 7.0 0.00 0.00 0.00 30 1013.7
20260508143847 76 106 2.0 6.0 0.00 0.00 0.00 31 1013.6
20260508142820 75 56 2.0 6.0 0.00 0.00 0.00 31 1013.5
20260508141817 74 66 2.0 6.0 0.00 0.00 0.00 31 1013.4
20260508140830 74 83 2.0 7.0 0.00 0.00 0.00 32 1013.4
20260508135842 73 71 2.0 6.0 0.00 0.00 0.00 32 1013.5
20260508134832 72 141 2.0 6.0 0.00 0.00 0.00 32 1013.2
20260508133823 72 73 2.0 6.0 0.00 0.00 0.00 32 1013.0
20260508132815 71 73 1.0 6.0 0.00 0.00 0.00 33 1012.9
20260508131813 71 101 1.0 5.0 0.00 0.00 0.00 33 1012.9
20260508130825 70 68 2.0 6.0 0.00 0.00 0.00 33 1012.7
20260508125819 70 108 1.0 5.0 0.00 0.00 0.00 34 1012.5
20260508124829 69 85 1.0 4.0 0.00 0.00 0.00 34 1012.4
20260508123821 69 92 2.0 7.0 0.00 0.00 0.00 34 1012.3
20260508122818 69 107 1.0 5.0 0.00 0.00 0.00 35 1012.1
20260508121850 69 64 2.0 4.0 0.00 0.00 0.00 35 1012.1
20260508120821 69 81 2.0 4.0 0.00 0.00 0.00 35 1012.0
20260508115815 69 112 1.0 3.0 0.00 0.00 0.00 36 1011.9
20260508114848 69 73 0.0 2.0 0.00 0.00 0.00 36 1012.1
20260508113821 69 37 1.0 3.0 0.00 0.00 0.00 35 1012.0
20260508112818 69 76 1.0 2.0 0.00 0.00 0.00 35 1011.9
20260508111851 69 137 0.0 1.0 0.00 0.00 0.00 35 1011.8
20260508110824 69 88 0.0 2.0 0.00 0.00 0.00 35 1011.8
20260508105837 70 64 1.0 3.0 0.00 0.00 0.00 35 1011.8
20260508104831 70 79 0.0 1.0 0.00 0.00 0.00 34 1011.8
20260508103844 70 83 0.0 2.0 0.00 0.00 0.00 34 1011.8
20260508102821 70 89 0.0 3.0 0.00 0.00 0.00 34 1011.7
20260508101815 70 91 1.0 3.0 0.00 0.00 0.00 34 1011.7
20260508100828 70 71 1.0 3.0 0.00 0.00 0.00 34 1011.6
20260508095822 71 73 1.0 4.0 0.00 0.00 0.00 33 1011.4
20260508094820 71 105 2.0 7.0 0.00 0.00 0.00 33 1011.3
20260508093832 71 101 1.0 6.0 0.00 0.00 0.00 32 1011.4
20260508092826 71 60 1.0 4.0 0.00 0.00 0.00 31 1011.4
20260508091817 71 77 2.0 6.0 0.00 0.00 0.00 29 1011.4
20260508090831 72 57 2.0 4.0 0.00 0.00 0.00 26 1011.4
20260508085843 72 59 2.0 4.0 0.00 0.00 0.00 24 1011.6
20260508084820 72 52 1.0 4.0 0.00 0.00 0.00 23 1011.6
20260508083832 73 67 2.0 6.0 0.00 0.00 0.00 23 1011.6
20260508082823 73 59 3.0 7.0 0.00 0.00 0.00 24 1011.7
20260508081817 73 53 2.0 4.0 0.00 0.00 0.00 25 1011.7
20260508080830 74 58 1.0 3.0 0.00 0.00 0.00 25 1011.6
20260508075827 75 67 0.0 1.0 0.00 0.00 0.00 24 1011.5
20260508074820 75 57 0.0 1.0 0.00 0.00 0.00 23 1011.5
20260508073814 75 73 0.0 1.0 0.00 0.00 0.00 23 1011.5
20260508072825 75 135 0.0 5.0 0.00 0.00 0.00 24 1011.6
20260508071817 74 114 2.0 3.0 0.00 0.00 0.00 25 1011.5
20260508070851 75 72 0.0 1.0 0.00 0.00 0.00 25 1011.2
20260508065848 75 50 0.0 1.0 0.00 0.00 0.00 25 1011.2
20260508064819 75 61 0.0 0.0 0.00 0.00 0.00 25 1011.2
20260508063813 75 61 0.0 0.0 0.00 0.00 0.00 25 1011.3
20260508062827 75 79 0.0 0.0 0.00 0.00 0.00 25 1011.3
20260508061823 76 54 0.0 0.0 0.00 0.00 0.00 25 1011.3
20260508060820 76 71 0.0 0.0 0.00 0.00 0.00 25 1011.3
20260508055833 77 16 0.0 0.0 0.00 0.00 0.00 23 1011.2
20260508054824 77 221 0.0 0.0 0.00 0.00 0.00 23 1011.3
20260508053838 77 221 0.0 0.0 0.00 0.00 0.00 23 1011.2
20260508052828 78 221 0.0 1.0 0.00 0.00 0.00 23 1011.1
20260508051842 77 221 0.0 0.0 0.00 0.00 0.00 23 1011.0
20260508050818 77 221 0.0 0.0 0.00 0.00 0.00 23 1010.9
20260508045831 77 221 0.0 0.0 0.00 0.00 0.00 22 1010.9
20260508044825 78 221 0.0 0.0 0.00 0.00 0.00 21 1010.9
20260508043817 78 221 0.0 0.0 0.00 0.00 0.00 20 1010.7
20260508042830 79 221 0.0 0.0 0.00 0.00 0.00 19 1010.6
20260508041827 81 221 0.0 0.0 0.00 0.00 0.00 17 1010.5
20260508040820 83 221 0.0 0.0 0.00 0.00 0.00 16 1010.5
20260508035832 85 221 0.0 1.0 0.00 0.00 0.00 15 1010.5
20260508034824 86 221 0.0 2.0 0.00 0.00 0.00 15 1010.3
20260508033835 86 220 0.0 2.0 0.00 0.00 0.00 14 1010.0
20260508032846 87 227 0.0 2.0 0.00 0.00 0.00 14 1010.0
20260508031822 88 231 1.0 4.0 0.00 0.00 0.00 13 1009.9
20260508030833 88 229 1.0 5.0 0.00 0.00 0.00 13 1009.8
20260508025826 88 231 3.0 5.0 0.00 0.00 0.00 13 1009.7
20260508024819 89 234 2.0 6.0 0.00 0.00 0.00 13 1009.5
20260508023831 89 254 3.0 7.0 0.00 0.00 0.00 12 1009.4
20260508022829 90 240 3.0 7.0 0.00 0.00 0.00 12 1009.3
20260508021821 90 226 2.0 7.0 0.00 0.00 0.00 11 1009.1
20260508020815 91 235 3.0 7.0 0.00 0.00 0.00 11 1009.1
20260508015848 91 206 5.0 10.0 0.00 0.00 0.00 10 1008.9
20260508014818 92 241 2.0 8.0 0.00 0.00 0.00 10 1008.8
20260508013817 92 208 2.0 7.0 0.00 0.00 0.00 10 1008.8
20260508012830 93 206 3.0 7.0 0.00 0.00 0.00 9 1008.8
20260508011824 94 200 4.0 8.0 0.00 0.00 0.00 9 1008.7
20260508010816 94 227 2.0 9.0 0.00 0.00 0.00 9 1008.7
20260508005829 94 241 4.0 12.0 0.00 0.00 0.00 9 1008.7
20260508004842 96 223 0.0 5.0 0.00 0.00 0.00 8 1008.6
20260508003819 96 329 2.0 8.0 0.00 0.00 0.00 8 1008.6
20260508002814 95 240 3.0 12.0 0.00 0.00 0.00 8 1008.7
20260508001828 95 236 2.0 8.0 0.00 0.00 0.00 8 1008.7
20260508000821 96 223 2.0 7.0 0.00 0.00 0.00 8 1008.6
20260507235811 96 262 1.0 9.0 0.00 0.00 0.00 8 1008.7
20260507234845 95 215 2.0 6.0 0.00 0.00 0.00 8 1008.6
20260507233822 95 222 3.0 10.0 0.00 0.00 0.00 8 1008.7
20260507232814 95 210 2.0 8.0 0.00 0.00 0.00 8 1008.8
20260507231827 96 233 1.0 4.0 0.00 0.00 0.00 9 1008.8
20260507230821 95 292 1.0 6.0 0.00 0.00 0.00 9 1008.9
20260507225818 95 109 2.0 6.0 0.00 0.00 0.00 9 1008.9
20260507224831 95 230 1.0 4.0 0.00 0.00 0.00 9 1009.2
20260507223825 94 201 4.0 11.0 0.00 0.00 0.00 9 1009.4
20260507222838 95 242 5.0 10.0 0.00 0.00 0.00 8 1009.4
20260507221829 94 23 2.0 6.0 0.00 0.00 0.00 9 1009.5
20260507220843 94 208 2.0 7.0 0.00 0.00 0.00 9 1009.6
20260507215817 94 235 4.0 6.0 0.00 0.00 0.00 10 1009.8
20260507214828 94 186 3.0 8.0 0.00 0.00 0.00 9 1010.0